Location: Conjunto Paulo VI
(19.8318°S, 43.8861°W)
Time: 05:50:08
(UTC+00:00)

Daily predictions for brighter satellites

Satellite Brightness Start Highest point End
(mag) Time Altitude Azimuth Time Altitude Azimuth Time Altitude Azimuth
Cosmos 2369 Rocket 4.3 05:12:18 21° ESE 05:12:18 21° ESE 05:15:10 10° SE
Cosmos 2082 Rocket 3.5 05:29:47 10° S 05:34:13 37° SE 05:34:13 37° SE
SL-16 R/B 3.6 05:30:59 10° S 05:34:32 37° S 05:34:32 37° S
Hubble Space Telescope 3.7 05:41:21 15° SE 05:41:21 15° SE 05:42:25 10° SE
Cosmos 1943 Rocket 3.3 05:47:56 37° S 05:47:56 37° S 05:51:17 10° SSE
Yuri Rocket 4.4 05:50:12 51° SSE 05:50:12 51° SSE 05:54:25 10° ESE
Cosmos 1464 Rocket 4.2 05:51:03 64° SSE 05:51:03 64° SSE 05:56:16 10° S
ATLAS 5 CENTAUR R/B 3.6 05:57:57 37° SW 05:57:57 37° SW 06:03:15 10° S
ATLAS CENTAUR R/B 4.1 05:55:53 10° SSE 05:59:19 20° ESE 06:02:36 10° ENE
Cosmos 2251 Rocket 4.5 05:59:32 10° S 06:04:42 46° ESE 06:09:51 10° NNE
Cosmos 1656 Rocket 4.4 06:10:25 39° NNE 06:11:55 49° ENE 06:17:14 10° SSE
ASTRO E2 4.4 06:13:38 29° E 06:13:38 29° E 06:15:57 10° ESE
Atlas Centaur 2 3.1 06:15:06 25° ENE 06:15:06 25° ENE 06:17:21 10° E
Cosmos 1624 Rocket 3.9 06:16:18 83° ENE 06:16:19 83° ENE 06:21:37 10° SSE
deb Centaur AC-2 4.5 06:19:07 56° ESE 06:19:07 56° ESE 06:22:39 10° ESE
GPS 2-14 Rocket1 4.0 06:20:29 36° E 06:20:29 36° E 06:22:50 10° E
OAO 2 Rocket 3.3 06:24:02 72° NNE 06:24:10 72° NNE 06:29:24 10° ESE
Meteor 1-28 Rocket 4.5 06:23:20 10° S 06:25:33 34° S 06:25:33 34° S
CBERS 1 LM4 rocket 4.3 06:29:25 23° NNE 06:32:22 84° ESE 06:37:13 10° S
ALOS 3.7 06:28:33 10° NE 06:32:50 37° ESE 06:37:10 10° S
SL-08 R/B 3.3 06:30:05 10° SSE 06:34:45 76° ENE 06:36:16 42° N
Cosmos 2263 4.1 06:34:06 57° WNW 06:35:00 67° WSW 06:40:37 10° S
FALCON 9 DEB 3.9 06:39:17 46° SE 06:39:17 46° SE 06:41:40 10° SE
Cosmos 304 Rocket 4.3 06:36:16 25° N 06:38:54 57° ENE 06:43:39 10° SSE
Cosmos 1726 4.4 06:36:34 10° NNE 06:39:34 24° E 06:42:34 10° SE
Skynet4D Del rocket 3.7 06:38:51 40° W 06:41:12 76° NNW 06:46:57 10° ENE
FALCON 9 DEB 3.6 06:43:55 50° SSE 06:43:55 50° SSE 06:46:21 10° SE
FENGYUN 3A 4.0 06:43:15 10° NNE 06:48:37 68° ESE 06:54:02 10° S
CZ-2C R/B 3.1 06:55:06 31° WSW 06:55:06 31° WSW 06:58:13 10° SW
Cosmos 1626 2.1 06:50:30 10° S 06:54:15 83° E 06:57:56 10° N
Cosmos 2369 Rocket 3.1 06:54:08 27° WSW 06:54:30 28° WSW 06:59:16 10° S
Cosmos 1455 Rocket 3.1 06:50:59 16° N 06:54:30 81° E 06:59:01 10° S
FALCON 9 DEB 3.1 06:54:51 57° SSW 06:54:51 57° SSW 06:57:47 10° SSE
USA 267 3.9 06:48:17 10° NE 06:54:39 56° SE 07:01:03 10° SSW
Cosmos 1420 Rocket 4.0 06:59:44 25° NNW 07:02:44 62° WSW 07:07:57 10° S
deb Chang Zheng 4 3.5 06:58:31 10° NNE 07:02:49 87° ESE 07:07:11 10° SSW
Aurora 2 Rocket 3.0 07:00:41 30° NW 07:03:21 63° NNE 07:07:34 10° E
Milstar 3 Cent rocket 3.6 06:58:02 17° WSW 07:04:03 82° NNW 07:19:53 10° ENE
FALCON 9 DEB 3.7 07:06:32 34° WSW 07:06:43 34° SW 07:09:38 10° SSE
Cosmos 1634 Rocket 3.9 07:02:48 10° N 07:09:01 72° W 07:15:15 10° S
Haruka 4.3 06:59:00 10° WSW 07:10:51 49° S 07:14:45 10° E
Meteor 1-24 Rocket 3.5 07:05:46 10° S 07:11:07 85° W 07:16:32 10° N
SL-19 R/B 4.1 07:14:25 10° N 07:17:53 70° WNW 07:21:57 10° SSW
Cosmos 2082 Rocket 4.1 07:15:22 10° WSW 07:15:49 11° WSW 07:15:49 11° WSW
SJ-12 4.5 07:15:05 10° NNE 07:19:05 61° ESE 07:23:08 10° S
ADEOS 3.8 07:14:19 10° N 07:19:20 47° W 07:24:23 10° SSW
Cosmos 1953 2.8 07:16:05 10° N 07:20:05 65° E 07:24:10 10° SSE
Hubble Space Telescope 2.2 07:16:54 10° SW 07:20:43 33° SSE 07:24:31 10° ESE
X-37B 2.7 07:21:59 13° NNW 07:21:59 13° NNW 07:22:47 10° N
Cosmos 1470 3.7 07:20:57 21° WNW 07:22:40 29° W 07:26:10 10° SSW
BREEZE-M DEB (TANK) 4.1 07:12:19 10° SW 07:24:03 56° SE 07:27:36 10° ENE
SL-27 R/B 4.5 07:21:06 10° S 07:24:14 32° ESE 07:27:25 10° NE
SWIFT 2.3 07:21:46 18° W 07:24:48 85° S 07:29:01 10° E
GP-B 3.9 07:22:52 10° SSW 07:26:48 31° W 07:30:43 10° NW
Cosmos 1092 Rocket 3.9 07:25:27 10° SSW 07:31:34 65° W 07:37:37 10° N
CZ-4C R/B 2.8 07:31:25 10° S 07:34:53 82° WSW 07:38:12 10° NNW
Cosmos 1484 Rocket 3.6 07:31:55 10° NNW 07:35:07 27° W 07:38:20 10° SW
GPS 2-12 Rocket1 3.2 07:33:18 12° W 07:37:44 87° N 07:42:36 10° E
ATLAS CENTAUR R/B 2.6 07:34:25 10° SW 07:38:05 24° WNW 07:41:36 10° NNW
Meteor 2-5 Rocket 4.5 07:34:06 10° SSW 07:38:51 30° W 07:43:38 10° NNW
Delta 198 3.8 07:40:30 11° WNW 07:45:51 90° NNE 07:50:31 10° ESE
H-2A R/B 2.2 07:42:35 10° S 07:47:08 81° WSW 07:51:39 10° NNW
Cosmos 1452 Rocket 4.2 07:45:16 10° NW 07:50:00 34° WSW 07:54:46 10° S
EXPRESS MD2 3.9 07:47:33 10° SSW 07:50:10 34° SE 07:52:11 10° ENE
ASTRO E2 3.7 07:48:50 10° W 07:52:34 37° SSW 07:56:20 10° SE
ERS-2 3.8 07:49:15 10° SSE 07:52:42 37° E 07:56:05 10° N
Meteor PRIRODA 3.7 07:49:39 10° N 07:53:18 57° W 07:57:00 10° SSW
ARGOS Delta rocket 4.3 07:48:54 10° N 07:54:06 48° W 07:59:08 10° SSW
CZ-4B R/B 3.4 07:50:59 10° N 07:55:16 48° W 07:59:40 10° SSW
Meteor 1-16 Rocket 4.2 07:50:19 10° NNW 07:55:42 67° W 08:01:21 10° S
